Time,TemperatureF,DewpointF,PressureIn,WindDirection,WindDirectionDegrees,WindSpeedMPH,WindSpeedGustMPH,Humidity,HourlyPrecipIn,Conditions,Clouds,dailyrainin,SoftwareType,DateUTC
2013-08-09 00:02:00,68.0,64.0,30.02,North,360,0.0,0.0,87,0.00,,,0.02,,2013-08-09 05:02:00,
2013-08-09 00:11:00,68.0,64.0,30.02,North,360,0.0,0.0,87,0.00,,,0.02,,2013-08-09 05:11:00,
2013-08-09 00:22:00,68.0,64.0,30.03,North,360,0.0,0.0,87,0.00,,,0.02,,2013-08-09 05:22:00,
2013-08-09 00:32:00,68.0,64.0,30.03,North,360,0.0,0.0,87,0.00,,,0.02,,2013-08-09 05:32:00,
2013-08-09 00:43:00,68.0,64.0,30.03,North,360,0.0,0.0,87,0.00,,,0.02,,2013-08-09 05:43:00,
2013-08-09 00:52:00,68.0,64.0,30.02,North,360,0.0,0.0,86,0.00,,,0.02,,2013-08-09 05:52:00,
2013-08-09 01:01:00,68.0,64.0,30.02,North,360,0.0,0.0,86,0.00,,,0.02,,2013-08-09 06:01:00,
2013-08-09 01:11:00,68.0,64.0,30.02,North,360,0.0,0.0,86,0.00,,,0.02,,2013-08-09 06:11:00,
2013-08-09 01:22:00,68.0,64.0,30.02,North,360,0.0,0.0,86,0.00,,,0.02,,2013-08-09 06:22:00,
2013-08-09 01:32:00,68.0,63.0,30.02,North,360,0.0,0.0,85,0.00,,,0.02,,2013-08-09 06:32:00,
2013-08-09 01:43:00,68.0,63.0,30.02,North,360,0.0,0.0,85,0.00,,,0.02,,2013-08-09 06:43:00,
2013-08-09 01:52:00,67.0,63.0,30.02,North,360,0.0,1.0,86,0.00,,,0.02,,2013-08-09 06:52:00,
2013-08-09 02:01:00,67.0,63.0,30.02,North,360,0.0,1.0,86,0.00,,,0.02,,2013-08-09 07:01:00,
2013-08-09 02:12:00,67.0,63.0,30.02,North,360,0.0,1.0,86,0.00,,,0.02,,2013-08-09 07:12:00,
2013-08-09 02:22:00,67.0,63.0,30.02,North,360,0.0,0.0,87,0.00,,,0.02,,2013-08-09 07:22:00,
2013-08-09 02:33:00,67.0,63.0,30.03,North,360,0.0,0.0,87,0.00,,,0.02,,2013-08-09 07:33:00,
2013-08-09 02:43:00,67.0,63.0,30.03,North,360,0.0,0.0,87,0.00,,,0.02,,2013-08-09 07:43:00,
2013-08-09 02:53:00,67.0,63.0,30.02,North,360,0.0,0.0,87,0.00,,,0.02,,2013-08-09 07:53:00,
2013-08-09 03:02:00,67.0,63.0,30.02,North,360,0.0,1.0,87,0.00,,,0.02,,2013-08-09 08:02:00,
2013-08-09 03:12:00,67.0,63.0,30.02,North,360,0.0,1.0,87,0.00,,,0.02,,2013-08-09 08:12:00,
2013-08-09 03:22:00,67.0,63.0,30.02,North,360,0.0,0.0,87,0.00,,,0.02,,2013-08-09 08:22:00,
2013-08-09 03:32:00,67.0,63.0,30.01,North,360,0.0,0.0,88,0.00,,,0.02,,2013-08-09 08:32:00,
2013-08-09 03:43:00,67.0,63.0,30.01,North,360,0.0,0.0,88,0.00,,,0.02,,2013-08-09 08:43:00,
2013-08-09 03:53:00,67.0,63.0,30.01,North,360,0.0,0.0,88,0.00,,,0.02,,2013-08-09 08:53:00,
2013-08-09 04:02:00,67.0,63.0,30.02,North,360,0.0,0.0,88,0.00,,,0.02,,2013-08-09 09:02:00,
2013-08-09 04:12:00,67.0,63.0,30.02,North,360,0.0,0.0,88,0.00,,,0.02,,2013-08-09 09:12:00,
2013-08-09 04:22:00,67.0,63.0,30.02,North,360,0.0,0.0,88,0.00,,,0.02,,2013-08-09 09:22:00,
2013-08-09 04:32:00,67.0,63.0,30.02,North,360,0.0,0.0,88,0.00,,,0.02,,2013-08-09 09:32:00,
2013-08-09 04:43:00,67.0,63.0,30.02,North,360,0.0,0.0,88,0.00,,,0.02,,2013-08-09 09:43:00,
2013-08-09 04:52:00,66.0,62.0,30.02,North,360,0.0,0.0,88,0.00,,,0.02,,2013-08-09 09:52:00,
2013-08-09 05:01:00,67.0,63.0,30.03,North,360,0.0,0.0,88,0.00,,,0.02,,2013-08-09 10:01:00,
2013-08-09 05:12:00,67.0,63.0,30.03,North,360,0.0,0.0,88,0.00,,,0.02,,2013-08-09 10:12:00,
2013-08-09 05:22:00,67.0,63.0,30.02,North,360,0.0,1.0,86,0.00,,,0.02,,2013-08-09 10:22:00,
2013-08-09 05:32:00,67.0,62.0,30.02,East,99,0.0,0.0,84,0.00,,,0.02,,2013-08-09 10:32:00,
2013-08-09 05:43:00,67.0,62.0,30.02,East,99,0.0,0.0,84,0.00,,,0.02,,2013-08-09 10:43:00,
2013-08-09 05:53:00,67.0,62.0,30.02,East,99,0.0,0.0,84,0.00,,,0.02,,2013-08-09 10:53:00,
2013-08-09 06:02:00,67.0,62.0,30.02,East,97,0.0,1.0,84,0.00,,,0.02,,2013-08-09 11:02:00,
2013-08-09 06:11:00,67.0,62.0,30.02,East,97,0.0,1.0,84,0.00,,,0.02,,2013-08-09 11:11:00,
2013-08-09 06:22:00,67.0,62.0,30.02,East,96,0.0,1.0,85,0.00,,,0.02,,2013-08-09 11:22:00,
2013-08-09 06:33:00,67.0,63.0,30.02,East,95,0.0,1.0,86,0.00,,,0.02,,2013-08-09 11:33:00,
2013-08-09 06:43:00,67.0,63.0,30.02,East,95,0.0,1.0,86,0.00,,,0.02,,2013-08-09 11:43:00,
2013-08-09 06:53:00,67.0,63.0,30.02,East,96,0.0,1.0,87,0.00,,,0.02,,2013-08-09 11:53:00,
2013-08-09 07:02:00,66.0,62.0,30.02,East,96,0.0,0.0,88,0.00,,,0.02,,2013-08-09 12:02:00,
2013-08-09 07:12:00,66.0,62.0,30.02,East,96,0.0,0.0,88,0.00,,,0.02,,2013-08-09 12:12:00,
2013-08-09 07:22:00,66.0,62.0,30.01,East,95,0.0,0.0,87,0.00,,,0.02,,2013-08-09 12:22:00,
2013-08-09 07:32:00,66.0,62.0,30.02,East,96,0.0,1.0,87,0.00,,,0.02,,2013-08-09 12:32:00,
2013-08-09 07:43:00,66.0,62.0,30.02,East,96,0.0,1.0,87,0.00,,,0.02,,2013-08-09 12:43:00,
2013-08-09 07:52:00,66.0,62.0,30.01,East,94,0.0,0.0,87,0.00,,,0.02,,2013-08-09 12:52:00,
2013-08-09 08:01:00,67.0,63.0,30.02,East,92,0.0,3.0,87,0.00,,,0.02,,2013-08-09 13:01:00,
2013-08-09 08:12:00,67.0,63.0,30.02,East,92,0.0,3.0,87,0.00,,,0.02,,2013-08-09 13:12:00,
2013-08-09 08:23:00,67.0,63.0,30.03,NE,51,0.0,2.0,87,0.00,,,0.02,,2013-08-09 13:23:00,
2013-08-09 08:32:00,67.0,63.0,30.03,NE,51,0.0,1.0,87,0.00,,,0.02,,2013-08-09 13:32:00,
2013-08-09 08:43:00,67.0,63.0,30.03,NE,51,0.0,1.0,87,0.00,,,0.02,,2013-08-09 13:43:00,
2013-08-09 08:52:00,67.0,63.0,30.05,NE,51,0.0,0.0,87,0.00,,,0.02,,2013-08-09 13:52:00,
2013-08-09 09:02:00,67.0,63.0,30.05,NE,51,0.0,0.0,86,0.00,,,0.02,,2013-08-09 14:02:00,
2013-08-09 09:11:00,67.0,63.0,30.05,NE,51,0.0,0.0,86,0.00,,,0.02,,2013-08-09 14:11:00,
2013-08-09 09:22:00,67.0,63.0,30.06,NE,51,0.0,0.0,87,0.00,,,0.02,,2013-08-09 14:22:00,
2013-08-09 09:33:00,67.0,63.0,30.06,NE,51,0.0,1.0,86,0.00,,,0.02,,2013-08-09 14:33:00,
2013-08-09 09:43:00,67.0,63.0,30.06,NE,51,0.0,1.0,86,0.00,,,0.02,,2013-08-09 14:43:00,
2013-08-09 09:53:00,68.0,64.0,30.07,NE,51,0.0,0.0,86,0.00,,,0.02,,2013-08-09 14:53:00,
2013-08-09 10:02:00,68.0,64.0,30.07,NE,51,0.0,1.0,86,0.00,,,0.02,,2013-08-09 15:02:00,
2013-08-09 10:11:00,68.0,64.0,30.07,NE,51,0.0,1.0,86,0.00,,,0.02,,2013-08-09 15:11:00,
2013-08-09 10:22:00,68.0,63.0,30.07,NE,51,0.0,1.0,85,0.00,,,0.02,,2013-08-09 15:22:00,
2013-08-09 10:33:00,69.0,64.0,30.08,NE,49,0.0,1.0,84,0.00,,,0.02,,2013-08-09 15:33:00,
2013-08-09 10:44:00,69.0,64.0,30.08,NE,49,0.0,1.0,84,0.00,,,0.02,,2013-08-09 15:44:00,
2013-08-09 10:53:00,70.0,65.0,30.08,NE,46,0.0,1.0,83,0.00,,,0.02,,2013-08-09 15:53:00,
2013-08-09 11:01:00,70.0,65.0,30.07,NE,45,0.0,1.0,83,0.00,,,0.02,,2013-08-09 16:01:00,
2013-08-09 11:11:00,70.0,65.0,30.07,NE,45,0.0,1.0,83,0.00,,,0.02,,2013-08-09 16:11:00,
2013-08-09 11:22:00,70.0,64.0,30.07,NE,45,0.0,0.0,82,0.00,,,0.02,,2013-08-09 16:22:00,
2013-08-09 11:32:00,71.0,65.0,30.07,NNE,13,0.0,1.0,82,0.00,,,0.02,,2013-08-09 16:32:00,
2013-08-09 11:43:00,71.0,65.0,30.07,NNE,13,0.0,1.0,82,0.00,,,0.02,,2013-08-09 16:43:00,
2013-08-09 11:53:00,71.0,65.0,30.07,NNE,13,0.0,0.0,82,0.00,,,0.02,,2013-08-09 16:53:00,
2013-08-09 12:02:00,71.0,65.0,30.08,NNE,13,0.0,0.0,81,0.00,,,0.02,,2013-08-09 17:02:00,
2013-08-09 12:11:00,71.0,65.0,30.08,NNE,13,0.0,0.0,81,0.00,,,0.02,,2013-08-09 17:11:00,
2013-08-09 12:22:00,71.0,65.0,30.08,NNE,13,0.0,1.0,82,0.00,,,0.00,,2013-08-09 17:22:00,
2013-08-09 12:33:00,71.0,65.0,30.09,NNE,13,0.0,0.0,82,0.00,,,0.00,,2013-08-09 17:33:00,
2013-08-09 12:43:00,71.0,65.0,30.09,NNE,13,0.0,0.0,82,0.00,,,0.00,,2013-08-09 17:43:00,
2013-08-09 12:52:00,71.0,66.0,30.08,NNE,13,0.0,1.0,83,0.00,,,0.00,,2013-08-09 17:52:00,
2013-08-09 13:01:00,71.0,66.0,30.08,NNE,13,0.0,1.0,83,0.00,,,0.00,,2013-08-09 18:01:00,
2013-08-09 13:11:00,71.0,66.0,30.08,NNE,13,0.0,1.0,83,0.00,,,0.00,,2013-08-09 18:11:00,
2013-08-09 13:22:00,72.0,67.0,30.08,NNE,13,0.0,0.0,84,0.00,,,0.00,,2013-08-09 18:22:00,
2013-08-09 13:32:00,72.0,67.0,30.09,NNE,13,0.0,1.0,83,0.00,,,0.00,,2013-08-09 18:32:00,
2013-08-09 13:43:00,72.0,67.0,30.09,NNE,13,0.0,1.0,83,0.00,,,0.00,,2013-08-09 18:43:00,
2013-08-09 13:53:00,72.0,67.0,30.09,NNE,13,0.0,1.0,83,0.00,,,0.00,,2013-08-09 18:53:00,
2013-08-09 14:02:00,72.0,67.0,30.09,NNE,13,0.0,0.0,85,0.01,,,0.01,,2013-08-09 19:02:00,
2013-08-09 14:11:00,72.0,67.0,30.09,NNE,13,0.0,0.0,85,0.01,,,0.01,,2013-08-09 19:11:00,
2013-08-09 14:22:00,72.0,68.0,30.08,North,5,0.0,1.0,86,0.01,,,0.01,,2013-08-09 19:22:00,
2013-08-09 14:32:00,71.0,67.0,30.09,North,5,0.0,1.0,86,0.01,,,0.01,,2013-08-09 19:32:00,
2013-08-09 14:43:00,71.0,67.0,30.09,North,5,0.0,1.0,86,0.01,,,0.01,,2013-08-09 19:43:00,
2013-08-09 14:52:00,72.0,68.0,30.09,North,5,0.0,1.0,87,0.01,,,0.01,,2013-08-09 19:52:00,
2013-08-09 15:02:00,71.0,67.0,30.09,North,355,0.0,3.0,87,0.01,,,0.02,,2013-08-09 20:02:00,
2013-08-09 15:11:00,71.0,67.0,30.09,North,355,0.0,3.0,87,0.01,,,0.02,,2013-08-09 20:11:00,
2013-08-09 15:22:00,71.0,67.0,30.09,North,355,0.0,1.0,86,0.01,,,0.02,,2013-08-09 20:22:00,
2013-08-09 15:32:00,71.0,67.0,30.09,North,355,0.0,1.0,87,0.01,,,0.02,,2013-08-09 20:32:00,
2013-08-09 15:43:00,71.0,67.0,30.09,North,355,0.0,1.0,87,0.01,,,0.02,,2013-08-09 20:43:00,
2013-08-09 15:52:00,71.0,67.0,30.09,North,355,0.0,0.0,87,0.01,,,0.02,,2013-08-09 20:52:00,
2013-08-09 16:01:00,71.0,66.0,30.09,East,85,0.0,1.0,85,0.00,,,0.02,,2013-08-09 21:01:00,
2013-08-09 16:12:00,71.0,66.0,30.09,East,85,0.0,1.0,85,0.00,,,0.02,,2013-08-09 21:12:00,
2013-08-09 16:22:00,71.0,66.0,30.09,East,82,0.0,0.0,84,0.00,,,0.02,,2013-08-09 21:22:00,
2013-08-09 16:33:00,71.0,66.0,30.09,East,82,0.0,1.0,85,0.00,,,0.02,,2013-08-09 21:33:00,
2013-08-09 16:43:00,71.0,66.0,30.09,East,82,0.0,1.0,85,0.00,,,0.02,,2013-08-09 21:43:00,
2013-08-09 16:52:00,71.0,64.0,30.09,North,360,0.0,5.0,79,0.00,,,0.02,,2013-08-09 21:52:00,
2013-08-09 17:01:00,71.0,65.0,30.09,North,360,0.0,1.0,80,0.00,,,0.02,,2013-08-09 22:01:00,
2013-08-09 17:11:00,71.0,65.0,30.09,North,360,0.0,1.0,80,0.00,,,0.02,,2013-08-09 22:11:00,
2013-08-09 17:22:00,71.0,65.0,30.09,North,360,0.0,0.0,81,0.00,,,0.02,,2013-08-09 22:22:00,
2013-08-09 17:32:00,72.0,66.0,30.09,North,360,0.0,1.0,81,0.00,,,0.02,,2013-08-09 22:32:00,
2013-08-09 17:42:00,72.0,66.0,30.09,North,360,0.0,1.0,81,0.00,,,0.02,,2013-08-09 22:42:00,
2013-08-09 17:52:00,72.0,64.0,30.09,NNE,19,0.0,0.0,75,0.00,,,0.02,,2013-08-09 22:52:00,
2013-08-09 18:01:00,71.0,62.0,30.08,NNE,18,0.0,1.0,73,0.00,,,0.02,,2013-08-09 23:01:00,
2013-08-09 18:11:00,71.0,62.0,30.08,NNE,18,0.0,1.0,73,0.00,,,0.02,,2013-08-09 23:11:00,
2013-08-09 18:22:00,71.0,63.0,30.08,NNE,19,0.0,1.0,75,0.00,,,0.02,,2013-08-09 23:22:00,
2013-08-09 18:32:00,72.0,64.0,30.08,NNE,23,0.0,1.0,76,0.00,,,0.02,,2013-08-09 23:32:00,
2013-08-09 18:43:00,72.0,64.0,30.08,NNE,23,0.0,1.0,76,0.00,,,0.02,,2013-08-09 23:43:00,
2013-08-09 18:52:00,72.0,64.0,30.07,ENE,67,0.0,2.0,75,0.00,,,0.02,,2013-08-09 23:52:00,
2013-08-09 19:01:00,72.0,64.0,30.08,NE,51,0.0,2.0,76,0.00,,,0.02,,2013-08-10 00:01:00,
2013-08-09 19:11:00,72.0,64.0,30.08,NE,51,0.0,2.0,76,0.00,,,0.02,,2013-08-10 00:11:00,
2013-08-09 19:22:00,72.0,64.0,30.08,NE,51,0.0,0.0,76,0.00,,,0.02,,2013-08-10 00:22:00,
2013-08-09 19:33:00,72.0,64.0,30.08,NE,51,0.0,0.0,76,0.00,,,0.02,,2013-08-10 00:33:00,
2013-08-09 19:43:00,71.0,63.0,30.08,NE,51,0.0,0.0,77,0.00,,,0.02,,2013-08-10 00:43:00,
2013-08-09 19:53:00,71.0,63.0,30.08,NE,51,0.0,0.0,77,0.00,,,0.02,,2013-08-10 00:53:00,
2013-08-09 20:01:00,71.0,64.0,30.08,NE,51,0.0,0.0,78,0.00,,,0.02,,2013-08-10 01:01:00,
2013-08-09 20:10:00,71.0,64.0,30.08,NE,51,0.0,0.0,79,0.00,,,0.02,,2013-08-10 01:10:00,
2013-08-09 20:11:00,71.0,64.0,30.08,NE,51,0.0,0.0,78,0.00,,,0.02,,2013-08-10 01:11:00,
2013-08-09 20:22:00,71.0,64.0,30.08,NE,51,0.0,0.0,78,0.00,,,0.02,,2013-08-10 01:22:00,
2013-08-09 20:32:00,71.0,64.0,30.08,NE,51,0.0,0.0,79,0.00,,,0.02,,2013-08-10 01:32:00,
2013-08-09 20:42:00,71.0,64.0,30.08,NE,51,0.0,0.0,79,0.00,,,0.02,,2013-08-10 01:42:00,
2013-08-09 20:52:00,71.0,64.0,30.08,NE,51,0.0,0.0,79,0.00,,,0.02,,2013-08-10 01:52:00,
2013-08-09 21:03:00,71.0,64.0,30.08,NE,51,0.0,0.0,79,0.00,,,0.02,,2013-08-10 02:03:00,
2013-08-09 21:32:00,70.0,64.0,30.09,NE,51,0.0,0.0,81,0.00,,,0.02,,2013-08-10 02:32:00,
2013-08-09 21:42:00,70.0,64.0,30.09,NE,51,0.0,0.0,81,0.00,,,0.02,,2013-08-10 02:42:00,
2013-08-09 21:52:00,70.0,64.0,30.09,NE,51,0.0,0.0,81,0.00,,,0.02,,2013-08-10 02:52:00,
2013-08-09 22:01:00,70.0,64.0,30.09,NE,51,0.0,0.0,81,0.00,,,0.02,,2013-08-10 03:01:00,
2013-08-09 22:11:00,66.0,63.0,30.12,NE,51,0.0,0.0,89,0.00,,,0.02,,2013-08-10 03:11:00,
2013-08-09 22:22:00,66.0,63.0,30.12,NE,51,0.0,0.0,89,0.00,,,0.02,,2013-08-10 03:22:00,
2013-08-09 22:32:00,66.0,63.0,30.12,NE,51,0.0,0.0,89,0.00,,,0.02,,2013-08-10 03:32:00,
2013-08-09 22:42:00,66.0,63.0,30.12,NE,51,0.0,0.0,89,0.00,,,0.02,,2013-08-10 03:42:00,
2013-08-09 22:52:00,65.0,62.0,30.13,NE,51,0.0,0.0,90,0.00,,,0.02,,2013-08-10 03:52:00,
2013-08-09 23:02:00,65.0,62.0,30.13,NE,51,0.0,0.0,90,0.00,,,0.02,,2013-08-10 04:02:00,
2013-08-09 23:12:00,65.0,62.0,30.13,NE,51,0.0,0.0,90,0.00,,,0.02,,2013-08-10 04:12:00,
2013-08-09 23:22:00,65.0,62.0,30.13,NE,51,0.0,0.0,91,0.00,,,0.02,,2013-08-10 04:22:00,
2013-08-09 23:32:00,64.0,62.0,30.14,NE,51,0.0,0.0,92,0.00,,,0.02,,2013-08-10 04:32:00,
2013-08-09 23:43:00,64.0,62.0,30.14,NE,51,0.0,0.0,92,0.00,,,0.02,,2013-08-10 04:43:00,
2013-08-09 23:53:00,64.0,62.0,30.14,NE,51,0.0,0.0,93,0.00,,,0.02,,2013-08-10 04:53:00,